Eelde, Netherlands

7:08 AM CET on December 16, 2017 (GMT +0100)
Eelde

Weather History for EHGG - May, 2013

Change the Weather History Date:

Wednesday, May 22, 2013

  Actual Average Record
Temperature  
Mean Temperature 47 °F -  
Max Temperature 53 °F 66 °F 82 °F (2012)
Min Temperature 41 °F 47 °F 37 °F (2004)
Degree Days  
Heating Degree Days 18    
Moisture  
Dew Point 41 °F    
Average Humidity 78    
Maximum Humidity 100    
Minimum Humidity 55    
Precipitation  
Precipitation 0.00 in 0.09 in - ()
Sea Level Pressure  
Sea Level Pressure 29.84 in    
Wind  
Wind Speed 16 mph ()    
Max Wind Speed 24 mph    
Max Gust Speed 37 mph    
Visibility 6.4 miles    
Events Rain    
Averages and records for this station are not official NWS values.
T = Trace of Precipitation, MM = Missing Value Source: Averaged Metar Reports

Daily Weather History Graph

Daily Weather History Graph

Search for Another Location

Airport or City:

Trip Planner

Search our weather history database for the weather conditions in past years. The results will help you decide how hot, cold, wet, or windy it might be!

Date:

Astronomy

May. 22, 2013 Rise Set
Actual Time 5:24 AM CEST 9:37 PM CEST
Civil Twilight 4:38 AM CEST 10:23 PM CEST
Nautical Twilight 3:30 AM CEST 11:32 PM CEST
Astronomical Twilight 2:02 AM CEST 12:57 AM CEST
Moon 6:18 PM CEST (5/22) 3:46 AM CEST (5/22)
Length of Visible Light 17h 45m
Length of Day
16h 12m
Waxing Gibbous, 89% of the Moon is Illuminated
May 22
Waxing Gibbous
May 25
Full
May 31
Last Quarter
Jun 8
New
Jun 16
First Quarter

Hourly Weather History & Observations

Time (CEST) Temp. Windchill Dew Point Humidity Pressure Visibility Wind Dir Wind Speed Gust Speed Precip Events Conditions
12:25 AM 48.2 °F - 46.4 °F 93% 29.80 in 6.2 mi NNW 15.0 mph - N/A   Overcast
12:55 AM 48.2 °F - 46.4 °F 93% 29.80 in 5.6 mi NNW 13.8 mph - N/A   Overcast
1:25 AM 48.2 °F - 46.4 °F 93% 29.80 in 3.7 mi NNW 16.1 mph - N/A   Mostly Cloudy
1:55 AM 48.2 °F - 44.6 °F 87% 29.80 in 5.0 mi NNW 12.7 mph - N/A   Overcast
2:00 AM 47 °F - 45 °F 90% 29.81 in 3 mi NNW 15.7 mph - -   Mist
2:25 AM 46.4 °F 40.1 °F 44.6 °F 93% 29.80 in 3.7 mi NNW 15.0 mph - N/A   Mostly Cloudy
2:55 AM 46.4 °F 39.8 °F 46.4 °F 100% 29.80 in 4.3 mi NNW 16.1 mph - N/A   Mostly Cloudy
3:25 AM 46.4 °F 39.8 °F 44.6 °F 93% 29.80 in 2.2 mi NNW 16.1 mph - N/A Rain Light Rain
3:55 AM 46.4 °F 39.2 °F 44.6 °F 93% 29.80 in 3.1 mi NW 18.4 mph - N/A   Mostly Cloudy
4:25 AM 46.4 °F 39.5 °F 44.6 °F 93% 29.80 in 3.1 mi NW 17.3 mph - N/A   Overcast
4:55 AM 46.4 °F 39.5 °F 42.8 °F 87% 29.80 in 6.2 mi NW 17.3 mph - N/A   Overcast
5:00 AM 46 °F - 43 °F 86% 29.81 in 5 mi NW 17.9 mph - -   Mist
5:25 AM 46.4 °F 39.5 °F 41.0 °F 81% 29.80 in 6.2 mi NNW 17.3 mph - N/A   Overcast
5:55 AM 46.4 °F 39.8 °F 41.0 °F 81% 29.80 in 6.2 mi NW 16.1 mph - N/A   Overcast
6:25 AM 46.4 °F 40.1 °F 41.0 °F 81% 29.80 in 6.2 mi NW 15.0 mph - N/A   Overcast
6:55 AM 46.4 °F 39.0 °F 41.0 °F 81% 29.80 in 6.2 mi NNW 19.6 mph - N/A   Overcast
7:25 AM 46.4 °F 39.0 °F 41.0 °F 81% 29.80 in 6.2 mi NW 19.6 mph - N/A   Overcast
7:55 AM 46.4 °F 39.8 °F 41.0 °F 81% 29.80 in 6.2 mi NW 16.1 mph - N/A   Overcast
8:00 AM 46 °F - 41 °F 76% 29.82 in 8 mi NNW 15.7 mph - -   Partly Cloudy
8:25 AM 46.4 °F 39.0 °F 41.0 °F 81% 29.80 in 6.2 mi NW 19.6 mph - N/A   Overcast
8:55 AM 46.4 °F 39.2 °F 41.0 °F 81% 29.80 in 6.2 mi NNW 18.4 mph - N/A   Overcast
9:25 AM 46.4 °F 39.5 °F 41.0 °F 81% 29.83 in 6.2 mi NW 17.3 mph - N/A   Overcast
9:55 AM 48.2 °F - 39.2 °F 71% 29.83 in 6.2 mi NNW 20.7 mph - N/A   Overcast
10:25 AM 48.2 °F - 41.0 °F 76% 29.83 in 6.2 mi NNW 19.6 mph - N/A   Overcast
10:55 AM 48.2 °F - 41.0 °F 76% 29.83 in 6.2 mi NW 19.6 mph - N/A   Overcast
11:00 AM 48 °F - 41 °F 70% 29.84 in 10 mi NW 20.1 mph - -   Overcast
11:25 AM 48.2 °F - 41.0 °F 76% 29.83 in 6.2 mi NW 21.9 mph - N/A   Overcast
11:55 AM 48.2 °F - 41.0 °F 76% 29.83 in 6.2 mi NW 19.6 mph 36.8 mph N/A   Overcast
12:25 PM 48.2 °F - 41.0 °F 76% 29.83 in 6.2 mi NW 19.6 mph - N/A   Overcast
12:55 PM 48.2 °F - 41.0 °F 76% 29.86 in 6.2 mi NNW 21.9 mph 35.7 mph N/A   Overcast
1:25 PM 50.0 °F - 41.0 °F 71% 29.86 in 6.2 mi NW 24.2 mph 35.7 mph N/A   Mostly Cloudy
1:55 PM 50.0 °F - 41.0 °F 71% 29.86 in 6.2 mi NNW 20.7 mph 32.2 mph N/A   Mostly Cloudy
2:00 PM 50 °F - 40 °F 59% 29.88 in 17 mi NNW 20.1 mph - -   Partly Cloudy
2:25 PM 50.0 °F - 41.0 °F 71% 29.86 in 6.2 mi NW 21.9 mph - N/A   Mostly Cloudy
2:55 PM 51.8 °F - 42.8 °F 71% 29.86 in 6.2 mi NW 21.9 mph 34.5 mph N/A   Mostly Cloudy
3:25 PM 51.8 °F - 42.8 °F 71% 29.86 in 6.2 mi NW 24.2 mph - N/A   Mostly Cloudy
3:55 PM 51.8 °F - 42.8 °F 71% 29.86 in 6.2 mi NNW 23.0 mph - N/A   Mostly Cloudy
4:25 PM 51.8 °F - 42.8 °F 71% 29.89 in 6.2 mi NW 23.0 mph - N/A   Mostly Cloudy
4:55 PM 51.8 °F - 44.6 °F 76% 29.89 in 6.2 mi WNW 18.4 mph 29.9 mph N/A   Mostly Cloudy
5:00 PM 53 °F - 43 °F 58% 29.89 in 14 mi WNW 22.4 mph - - Rain Rain
5:25 PM 50.0 °F - 41.0 °F 71% 29.89 in 6.2 mi NW 21.9 mph - N/A   Mostly Cloudy
5:55 PM 50.0 °F - 39.2 °F 66% 29.89 in 6.2 mi NW 21.9 mph - N/A   Mostly Cloudy
6:25 PM 50.0 °F - 39.2 °F 66% 29.89 in 6.2 mi NW 19.6 mph - N/A   Scattered Clouds
6:55 PM 50.0 °F - 39.2 °F 66% 29.89 in 6.2 mi NW 20.7 mph - N/A   Mostly Cloudy
7:25 PM 50.0 °F - 37.4 °F 62% 29.89 in 6.2 mi NW 20.7 mph 32.2 mph N/A   Unknown
7:55 PM 48.2 °F - 39.2 °F 71% 29.89 in 6.2 mi NW 17.3 mph - N/A   Mostly Cloudy
8:00 PM 48 °F - 37 °F 55% 29.91 in 12 mi NW 15.7 mph - -   Partly Cloudy
8:25 PM 48.2 °F - 37.4 °F 66% 29.89 in 6.2 mi NW 15.0 mph - N/A   Unknown
8:55 PM 46.4 °F 41.9 °F 37.4 °F 71% 29.89 in 6.2 mi WNW 9.2 mph - N/A   Unknown
9:25 PM 46.4 °F 42.4 °F 39.2 °F 76% 29.89 in 6.2 mi West 8.1 mph - N/A   Partly Cloudy
9:55 PM 44.6 °F 40.2 °F 39.2 °F 81% 29.89 in 6.2 mi West 8.1 mph - N/A   Partly Cloudy
10:25 PM 42.8 °F 39.3 °F 39.2 °F 87% 29.89 in 6.2 mi West 5.8 mph - N/A   Scattered Clouds
10:55 PM 42.8 °F 38.0 °F 39.2 °F 87% 29.89 in 6.2 mi WSW 8.1 mph - N/A   Mostly Cloudy
11:00 PM 42 °F - 38 °F 83% 29.89 in 9 mi WSW 6.7 mph - -   Scattered Clouds
11:25 PM 41.0 °F 35.8 °F 39.2 °F 93% 29.86 in 6.2 mi WSW 8.1 mph - N/A   Unknown
11:55 PM 42.8 °F 38.0 °F 39.2 °F 87% 29.86 in 6.2 mi WSW 8.1 mph - N/A   Unknown